Home > Weather > Wageningen > Past weeks

Flag for Netherlands Past Weather in Wageningen, Netherlands — Yesterday and Last 2 Weeks

Now
77 °F

Passing clouds.


Feels Like: 79 °F
Forecast: 64 / 86 °F
Wind: 8 mph from Northwest

Location: Deelen

Current Time: Aug 26, 2016 at 10:43:23 AM

Latest Report: Aug 26, 2016 at 9:55 AM


Visibility: N/A

Pressure: 29.98 "Hg

Humidity: 65%

Dew Point: 64 °F

Location of WageningenLocation

Past Weather in Wageningen — Graph

°F

Wageningen Temperature Yesterday

Maximum temperature yesterday: 90 °F (at 4:25 PM)
Minimum temperature yesterday: 68 °F (at 5:25 AM)
Average temperature yesterday: 77 °F

High & Low Weather Summary for the Past Weeks

 TemperatureHumidityPressure
High90 °F (Aug 25, 4:25 PM)100% (Aug 11, 7:25 PM)30.30 "Hg (Aug 11, 7:25 PM)
Low46 °F (Aug 15, 6:55 AM)33% (Aug 24, 4:25 PM)29.77 "Hg (Aug 19, 2:55 PM)
Average65 °F75%30.06 "Hg
* Reported Aug 11 9:25 AM — Aug 26 9:25 AM, Wageningen, Weather by CustomWeather, © 2016

Note: Actual official high and low records may vary slightly from our data, if they occured in-between our weather recording intervals... More about our weather records

Advertising

Wageningen Weather History for the Previous 24 Hours

Scroll right to see more
 ConditionsComfort  
Time TempWeatherWind HumidityBarometerVisibility
9:25 AM
Fri, Aug 26
75 °FHaze.2 mph74%29.95 "Hg6 mi
8:55 AM73 °FFog.1 mph78%29.95 "Hg6 mi
8:25 AM70 °FPassing clouds.2 mph83%29.95 "HgN/A
7:55 AM66 °FMild.2 mph88%29.95 "HgN/A
7:25 AM66 °FMild.1 mph88%29.95 "HgN/A
6:55 AM68 °FMild.3 mph83%29.95 "HgN/A
6:25 AM68 °FMild.3 mph83%29.92 "HgN/A
5:55 AM70 °FPassing clouds.5 mph78%29.92 "HgN/A
5:25 AM68 °FMild.3 mph78%29.92 "HgN/A
4:55 AM70 °FPassing clouds.6 mph73%29.92 "HgN/A
4:25 AM68 °FPassing clouds.5 mph78%29.92 "HgN/A
3:55 AM70 °FMild.5 mph73%29.92 "HgN/A
3:25 AM68 °FPassing clouds.2 mph73%29.92 "HgN/A
2:55 AM70 °FMild.3 mph69%29.92 "HgN/A
2:25 AM68 °FMild.3 mph73%29.92 "HgN/A
1:55 AM68 °FMild.3 mph73%29.92 "HgN/A
1:25 AM68 °FPassing clouds.2 mph73%29.92 "HgN/A
12:55 AM66 °FMild.2 mph83%29.92 "HgN/A
12:25 AM66 °FMild.3 mph83%29.92 "HgN/A
11:55 PM
Thu, Aug 25
68 °FMild.2 mph78%29.92 "HgN/A
11:25 PM68 °FMild.1 mph83%29.92 "HgN/A
10:55 PM70 °FMild.3 mph78%29.92 "HgN/A
10:25 PM72 °FMild.2 mph69%29.95 "HgN/A
9:55 PM72 °FMild.3 mph73%29.95 "HgN/A
9:25 PM72 °FMild.2 mph73%29.95 "HgN/A
8:55 PM77 °FWarm.3 mph61%29.92 "HgN/A
8:25 PM81 °FWarm.5 mph58%29.92 "HgN/A
7:55 PM84 °FWarm.3 mph55%29.92 "HgN/A
7:25 PM86 °FWarm.3 mph46%29.92 "HgN/A
6:55 PM88 °FWarm.7 mph43%29.92 "HgN/A
6:25 PM90 °FHot.6 mph38%29.95 "HgN/A
5:55 PM90 °FPassing clouds.8 mph41%29.95 "HgN/A
5:25 PM90 °FHot.9 mph41%29.95 "HgN/A
4:55 PM90 °FHot.7 mph38%29.95 "HgN/A
4:25 PM90 °FHot.6 mph43%29.98 "HgN/A
3:55 PM88 °FPassing clouds.7 mph40%29.98 "HgN/A
3:25 PM88 °FWarm.9 mph40%29.98 "HgN/A
2:55 PM88 °FPleasantly warm.12 mph38%29.98 "HgN/A
2:25 PM88 °FWarm.10 mph40%29.98 "HgN/A
1:55 PM86 °FWarm.10 mph46%29.98 "HgN/A
1:25 PM86 °FWarm.10 mph46%29.98 "HgN/A
12:55 PM84 °FWarm.8 mph51%30.01 "HgN/A
12:25 PM84 °FWarm.8 mph48%30.01 "HgN/A
11:55 AM82 °FWarm.8 mph48%30.01 "HgN/A
11:25 AM81 °FPassing clouds.8 mph51%30.01 "HgN/A
10:55 AM79 °FPassing clouds.12 mph54%30.01 "HgN/A
10:25 AM79 °FWarm.9 mph58%30.04 "HgN/A
Weather by CustomWeather, © 2016

See weather overviewHow to use our weather pages